Date String (YYYY-MM-DD hh:mm:ss) UTC,Instrument flags,Ambient pressure (hPa),Sample flow (lpm),Bypass flow (lpm),Sample temperature (°C),Ambient temperature (°C),ASC tube jacket temperature (°C),LED temperature (°C),Box temperature (°C),Sample RH (%),Span deviation,Mass concentration (μg/m³),Mass concentration (μg/m³),Mass concentration (μg/m³)
DateTimeUTC,F1_M11,P_M11,Q1_M11,Q2_M11,T1_M11,T2_M11,T3_M11,T4_M11,T5_M11,U1_M11,ZSPAN_M11,X0_M11,X2_M11,X1_M11
2022-08-30 20:00:00,,0832.8,5.00,0.00,29.3,27.7,00.0,37.9,31.1,25.9,0000.0,0020.63,0007.43,0005.84
2022-08-30 20:01:00,,0832.8,5.01,0.00,29.3,28.0,00.0,37.9,31.2,26.2,0000.0,0021.01,0007.45,0005.85
2022-08-30 20:02:00,,0832.9,5.01,0.00,29.3,28.2,00.0,37.9,31.3,26.4,0000.0,0020.62,0007.42,0005.85
2022-08-30 20:03:00,,0832.9,4.97,0.00,29.4,28.1,00.0,37.9,31.3,26.3,0000.0,0020.56,0007.44,0005.86
2022-08-30 20:04:00,,0832.8,5.00,0.00,29.4,27.1,00.0,37.9,31.2,26.3,0000.0,0020.64,0007.44,0005.87
2022-08-30 20:05:00,,0832.8,5.00,0.00,29.3,26.4,00.0,37.9,31.2,26.2,0000.0,0020.86,0007.43,0005.88
2022-08-30 20:06:00,,0832.8,5.00,0.00,29.3,26.6,00.0,37.9,31.1,26.4,0000.0,0019.93,0007.44,0005.88
2022-08-30 20:07:00,,0832.8,5.01,0.00,29.2,26.9,00.0,37.8,30.9,26.5,0000.0,0019.37,0007.45,0005.88
2022-08-30 20:08:00,,0832.7,5.00,0.00,29.2,27.2,00.0,37.8,31.0,26.7,0000.0,0020.79,0007.49,0005.89
2022-08-30 20:09:00,,0832.8,5.00,0.00,29.2,27.5,00.0,37.8,31.0,26.7,0000.0,0022.61,0007.57,0005.88
2022-08-30 20:10:00,,0832.7,5.00,0.00,29.3,27.8,00.0,37.8,31.1,26.5,0000.0,0023.37,0007.57,0005.88
2022-08-30 20:11:00,,0832.7,5.01,0.00,29.3,28.0,00.0,37.9,31.2,26.4,0000.0,0022.76,0007.58,0005.90
2022-08-30 20:12:00,,0832.8,5.01,0.00,29.3,28.2,00.0,37.9,31.3,26.0,0000.0,0022.23,0007.53,0005.89
2022-08-30 20:13:00,,0832.7,4.98,0.00,29.4,28.4,00.0,37.9,31.3,25.9,0000.0,0022.26,0007.51,0005.88
2022-08-30 20:14:00,,0832.8,5.00,0.00,29.4,27.9,00.0,37.9,31.4,25.8,0000.0,0022.66,0007.50,0005.87
2022-08-30 20:15:00,,0832.8,5.01,0.00,29.4,26.9,00.0,37.9,31.3,25.4,0000.0,0024.33,0007.43,0005.85
2022-08-30 20:16:00,,0832.8,4.99,0.00,29.4,26.6,00.0,37.9,31.2,25.5,0000.0,0024.23,0007.39,0005.81
2022-08-30 20:17:00,,0832.8,5.00,0.00,29.3,26.9,00.0,37.9,31.1,25.6,0000.0,0024.13,0007.34,0005.77
2022-08-30 20:18:00,,0832.7,5.00,0.00,29.3,27.1,00.0,37.9,31.0,25.8,0000.0,0024.74,0007.26,0005.73
2022-08-30 20:19:00,,0832.7,4.99,0.00,29.3,27.4,00.0,37.9,31.1,25.8,0000.0,0023.82,0007.19,0005.68
2022-08-30 20:20:00,,0832.7,5.02,0.00,29.3,27.7,00.0,37.9,31.2,25.7,0000.0,0022.48,0007.03,0005.62
2022-08-30 20:21:00,,0832.7,5.00,0.00,29.3,28.0,00.0,37.9,31.3,25.6,0000.0,0021.97,0006.95,0005.59
2022-08-30 20:22:00,,0832.7,5.00,0.00,29.4,28.2,00.0,37.9,31.3,25.2,0000.0,0021.94,0006.87,0005.53
2022-08-30 20:23:00,,0832.7,4.98,0.00,29.4,28.3,00.0,37.9,31.4,25.4,0000.0,0022.84,0006.81,0005.49
2022-08-30 20:24:00,,0832.7,5.00,0.00,29.4,27.4,00.0,38.0,31.3,25.4,0000.0,0022.64,0006.82,0005.45
2022-08-30 20:25:00,,0832.7,4.99,0.00,29.4,26.5,00.0,37.9,31.2,25.6,0000.0,0022.25,0006.75,0005.41
2022-08-30 20:26:00,,0832.6,4.99,0.00,29.3,26.6,00.0,37.9,31.2,25.4,0000.0,0019.67,0006.74,0005.38
2022-08-30 20:27:00,,0832.6,5.00,0.00,29.3,26.9,00.0,37.9,31.0,25.4,0000.0,0018.74,0006.75,0005.37
2022-08-30 20:28:00,,0832.6,5.01,0.00,29.3,27.2,00.0,37.9,31.0,25.6,0000.0,0018.55,0006.74,0005.36
2022-08-30 20:29:00,,0832.6,5.00,0.00,29.3,27.5,00.0,37.9,31.1,25.5,0000.0,0018.82,0006.76,0005.35
2022-08-30 20:30:00,,0832.6,5.01,0.00,29.3,27.8,00.0,37.9,31.2,24.6,0000.0,0019.29,0006.72,0005.33
2022-08-30 20:31:00,,0832.6,5.00,0.00,29.3,28.1,00.0,37.9,31.2,23.2,0000.0,0018.69,0006.69,0005.31
2022-08-30 20:32:00,,0832.6,4.99,0.00,29.4,28.3,00.0,37.9,31.3,23.3,0000.0,0018.19,0006.62,0005.28
2022-08-30 20:33:00,,0832.6,5.00,0.00,29.4,28.4,00.0,38.0,31.4,23.3,0000.0,0018.49,0006.60,0005.25
2022-08-30 20:34:00,,0832.6,4.99,0.00,29.5,27.6,00.0,38.0,31.4,22.2,0000.0,0017.05,0006.55,0005.22
2022-08-30 20:35:00,,0832.6,5.02,0.00,29.4,26.6,00.0,38.0,31.3,22.1,0000.0,0017.39,0006.48,0005.17
2022-08-30 20:36:00,,0832.5,5.00,0.00,29.4,26.6,00.0,37.9,31.2,23.7,0000.0,0017.35,0006.41,0005.14
2022-08-30 20:37:00,,0832.5,5.00,0.00,29.3,26.9,00.0,37.9,31.1,24.7,0000.0,0017.88,0006.42,0005.14
2022-08-30 20:38:00,,0832.5,5.00,0.00,29.3,27.2,00.0,37.9,31.1,25.0,0000.0,0017.71,0006.32,0005.13
2022-08-30 20:39:00,,0832.5,5.00,0.00,29.3,27.6,00.0,37.9,31.1,25.1,0000.0,0018.73,0006.26,0005.11
2022-08-30 20:40:00,,0832.5,5.01,0.00,29.3,27.8,00.0,37.9,31.2,24.4,0000.0,0017.95,0006.20,0005.09
2022-08-30 20:41:00,,0832.5,5.01,0.00,29.4,28.1,00.0,37.9,31.3,24.3,0000.0,0017.73,0006.25,0005.09
2022-08-30 20:42:00,,0832.5,4.98,0.00,29.4,28.2,00.0,38.0,31.3,24.0,0000.0,0018.36,0006.27,0005.09
2022-08-30 20:43:00,,0832.5,5.02,0.00,29.4,27.6,00.0,38.0,31.3,24.4,0000.0,0018.73,0006.34,0005.11
2022-08-30 20:44:00,,0832.5,5.00,0.00,29.4,26.6,00.0,38.0,31.2,23.5,0000.0,0018.68,0006.36,0005.11
2022-08-30 20:45:00,,0832.4,5.00,0.00,29.4,26.6,00.0,37.9,31.2,20.5,0000.0,0018.72,0006.33,0005.09
2022-08-30 20:46:00,,0832.4,5.00,0.00,29.3,26.9,00.0,37.9,31.1,21.2,0000.0,0018.82,0006.28,0005.06
2022-08-30 20:47:00,,0832.5,5.00,0.00,29.3,27.2,00.0,37.9,31.0,21.6,0000.0,0019.43,0006.28,0005.05
2022-08-30 20:48:00,,0832.4,5.00,0.00,29.3,27.5,00.0,37.9,31.1,20.3,0000.0,0018.86,0006.17,0005.00
2022-08-30 20:49:00,,0832.4,5.00,0.00,29.3,27.7,00.0,37.9,31.1,20.8,0000.0,0019.89,0006.12,0004.95
2022-08-30 20:50:00,,0832.3,5.01,0.00,29.3,28.0,00.0,37.9,31.2,21.3,0000.0,0019.50,0006.04,0004.90
2022-08-30 20:51:00,,0832.3,4.98,0.00,29.4,28.2,00.0,37.9,31.3,22.1,0000.0,0018.80,0005.97,0004.86
2022-08-30 20:52:00,,0832.4,4.99,0.00,29.4,28.2,00.0,37.9,31.3,21.5,0000.0,0018.04,0005.93,0004.85
2022-08-30 20:53:00,,0832.3,5.00,0.00,29.4,27.1,00.0,37.9,31.3,21.8,0000.0,0016.51,0005.89,0004.82
2022-08-30 20:54:00,,0832.3,5.00,0.00,29.4,26.4,00.0,37.9,31.2,22.0,0000.0,0017.27,0005.83,0004.80
2022-08-30 20:55:00,,0832.3,5.01,0.00,29.3,26.7,00.0,37.9,31.1,22.2,0000.0,0017.87,0005.79,0004.79
2022-08-30 20:56:00,,0832.4,4.99,0.00,29.3,26.9,00.0,37.9,31.0,22.6,0000.0,0018.53,0005.84,0004.81
2022-08-30 20:57:00,,0832.3,5.01,0.00,29.3,27.3,00.0,37.9,31.0,22.7,0000.0,0019.02,0005.95,0004.86
2022-08-30 20:58:00,,0832.3,5.01,0.00,29.3,27.6,00.0,37.9,31.1,22.7,0000.0,0018.31,0005.97,0004.90
2022-08-30 20:59:00,,0832.3,5.00,0.00,29.3,27.9,00.0,37.9,31.2,22.5,0000.0,0019.42,0006.02,0004.91
